This is the latest recevied weather packets stored in our database for station/object OK2ILA-3. If no packets are shown the sender has not sent any weather packets the latest 10 day(s).
| Time | Temp. | Humidity | Pressure | Rain* | Wind** | Luminosity | Snow |
|---|---|---|---|---|---|---|---|
| 1778171425 | 16.67° C | 12% | 11.5 hPa | 0 mm | - | - | - |
| 1778170819 | 17.22° C | 54% | 1019.2 hPa | 0 mm | - | - | - |
| 1778170213 | 17.78° C | 3% | 5738.5 hPa | 0 mm | - | - | - |
| 1778169609 | 18.33° C | 88% | 5738.5 hPa | 0 mm | - | - | - |
| 1778169004 | 18.89° C | 2% | 5738.5 hPa | 0 mm | - | - | - |
| 1778168399 | 18.89° C | 4% | 5738.5 hPa | 0 mm | - | - | - |
| 1778167796 | 18.89° C | 1% | 5738.5 hPa | 0 mm | - | - | - |
| 1778167187 | 18.89° C | 2% | 5738.5 hPa | 0 mm | - | - | - |
| 1778166831 | 18.33° C | 12% | 5738.5 hPa | 0 mm | - | - | - |
| 1778166583 | 18.33° C | 12% | 5738.5 hPa | 0 mm | - | - | - |
| 1778165977 | 18.33° C | 100% | 4352 hPa | 0 mm | - | - | - |
| 1778165371 | 18.89° C | 3% | 4352 hPa | 0 mm | - | - | - |
| 1778164766 | 18.89° C | 62% | 4352 hPa | 0 mm | - | - | - |
| 1778164162 | 17.78° C | 1% | 4352 hPa | 0 mm | - | - | - |
| 1778163555 | 18.33° C | 53% | 4352 hPa | 0 mm | - | - | - |
| 1778162342 | 19.44° C | 11% | 8.1 hPa | 0 mm | - | - | - |
| 1778161734 | 18.89° C | 53% | 8.1 hPa | 0 mm | - | - | - |
| 1778161129 | 18.89° C | 1% | 8.1 hPa | 0 mm | - | - | - |
| 1778160519 | 19.44° C | 1% | 3840 hPa | 0 mm | - | - | - |
| 1778159913 | 20° C | 1% | 3840 hPa | 0 mm | - | - | - |
| 1778159306 | 18.89° C | 11% | 3840 hPa | 0 mm | - | - | - |
| 1778158701 | 18.89° C | 55% | 361.6 hPa | 0 mm | - | - | - |
| 1778158097 | 18.89° C | 1% | 361.6 hPa | 0 mm | - | - | - |
| 1778157493 | 18.89° C | 3% | 3277.3 hPa | 0 mm | - | - | - |
| 1778156888 | 20° C | 1% | 3690.6 hPa | 0 mm | - | - | - |
* Rain latest 24 hours (hover to see other rain measurements)
** Current wind speed in m/s (hover to see current wind gust speed)